OBJECT K

基本信息
目录编号:
63991
目录名称:
OBJECT K
国际标识:
2025-100K
轨道中心:
EARTH
物体状态:
在轨
发射日期:
2025-05-14 UTC
国别:
中国 (CN)
轨道信息
数据来源: 国际轨道数据
星历时间: 2026-09-04T14:36:41+0800
半长轴: 6879.501km
偏心率: 0.0010547
轨道倾角: 97.357°
近地点辐角: 50.115°
升交点赤经: 318.241°
平近点角: 310.101°
近地点: 494.108km
远地点: 508.62km
周期: 94.644分钟
每日圈数: 15.21484
详细信息
发射场:
JSC
轨道高度:
LEO
数据来源:
AOE Working Group
参考系:
TEME
时间系统:
UTC
历元类型:
SGP4
2D轨道图
3D轨道图
轨道高度分析图
轨道倾角分析图
轨道综合分析图
查看轨道综合分析图